Theta_e
297 298 299 299 300 300 301 302 302 302 302 302 302 303 303 302 302 299 296 301 294 289 290 293 294 291 292 291 287 292 288 291 288 284 285 285 285 288 288 289 288 286 284 283 285 282 280 298 297 292 298 302 301 301
298 298 299 299 300 301 302 302 302 302 302 302 303 303 303 303 302 301 293 299 300 292 291 297 298 299 296 296 291 292 290 291 291 288 289 289 287 291 288 283 294 286 289 287 288 287 297 302 301 302 303 301 301 300
298 298 299 300 301 301 302 302 302 302 302 302 303 303 303 303 303 301 295 296 296 291 291 292 291 298 301 301 303 291 293 296 294 298 293 292 287 291 286 287 290 294 296 290 291 295 297 299 300 301 302 300 301 301
298 299 300 301 301 301 301 301 301 301 301 302 302 302 303 303 303 302 294 297 295 291 285 288 298 295 300 303 301 301 298 299 298 296 291 291 289 295 290 291 291 293 294 292 293 295 297 296 298 299 299 299 298 300
298 300 301 301 301 301 301 301 301 301 301 302 302 302 303 303 303 302 297 298 298 293 286 288 295 298 300 300 299 300 298 296 293 289 288 289 294 294 294 294 291 295 291 291 289 293 293 292 296 298 297 296 296 296
299 300 300 300 300 300 300 301 301 301 301 301 302 302 302 303 303 293 286 297 300 300 291 286 297 295 299 298 297 297 298 296 293 290 290 294 297 295 289 287 290 293 294 292 289 293 296 295 293 294 293 293 293 292
299 299 300 299 300 300 301 301 301 301 301 301 302 302 302 301 296 292 292 296 300 300 290 286 289 295 298 297 297 297 298 295 293 290 291 293 294 295 291 286 287 289 292 291 291 292 291 291 289 292 292 292 293 290
299 299 298 300 300 300 301 301 301 301 301 301 301 302 302 299 299 296 301 301 302 295 293 285 286 291 298 291 290 297 292 292 291 290 293 291 294 293 284 285 286 286 289 288 288 291 291 291 291 290 291 290 289 286
298 298 299 299 300 300 300 301 301 301 301 301 301 300 297 295 292 296 301 301 304 296 287 288 285 284 296 292 291 291 291 285 291 287 289 293 288 279 281 282 283 284 284 284 287 290 287 287 286 286 286 284 283 282
297 298 299 300 300 300 300 300 300 300 299 299 298 292 286 295 300 300 294 289 291 293 293 288 294 287 293 291 290 288 290 287 284 288 294 288 278 282 283 283 283 284 284 285 282 281 282 281 282 283 282 281 281 279
297 299 299 299 299 299 299 299 299 300 300 297 292 289 296 301 297 292 286 287 289 287 291 292 292 288 294 288 288 292 287 288 283 286 286 284 277 279 282 282 282 283 283 283 282 282 281 281 281 281 280 279 278 277
297 300 299 299 299 299 299 299 299 299 298 296 294 296 296 292 290 286 285 288 287 284 289 289 289 291 291 292 290 288 285 287 281 289 285 276 277 279 280 280 280 280 280 280 280 279 279 279 280 279 278 277 276 276
298 298 299 299 299 299 299 299 300 299 300 298 292 287 288 286 283 283 279 283 283 286 287 288 285 289 289 291 286 286 284 283 288 284 275 275 277 278 278 279 278 278 278 278 277 277 277 276 277 276 275 275 275 274
296 295 296 296 296 297 296 294 296 297 294 287 285 278 281 279 279 279 281 282 283 285 286 288 288 287 288 286 286 282 283 285 280 278 272 274 276 277 278 278 277 275 276 275 274 274 273 273 273 273 273 273 272 271
294 295 294 294 294 293 294 294 295 294 288 283 284 277 277 280 282 283 285 284 284 287 288 288 289 288 285 282 284 282 279 276 276 273 274 276 277 276 276 276 276 275 275 274 274 273 272 272 272 271 272 272 272 271
296 295 293 293 293 293 293 294 293 291 286 281 280 280 282 282 281 282 283 282 285 286 289 290 285 282 279 281 279 276 277 273 273 275 276 276 275 275 275 276 276 276 276 275 274 273 273 272 271 271 271 271 271 270
297 295 293 292 294 294 294 292 288 283 281 279 277 281 282 280 279 280 282 282 286 286 283 285 279 277 283 277 273 274 272 273 275 275 276 276 275 275 276 276 276 276 275 275 274 274 274 274 273 272 270 271 271 271
296 292 293 294 294 294 291 290 285 282 277 280 277 278 279 281 280 280 282 284 286 284 283 278 283 276 274 273 272 273 274 276 277 276 276 276 276 277 277 276 276 276 275 275 275 275 274 274 273 272 272 272 272 271
298 296 293 293 294 291 285 285 287 277 278 280 280 281 281 281 282 282 283 284 284 285 283 280 275 273 273 276 275 275 276 276 274 275 275 276 276 275 276 276 276 275 275 275 275 274 274 274 274 275 274 274 272 272
296 296 296 294 293 288 283 283 289 281 278 279 282 280 280 279 281 282 282 282 281 279 275 273 274 275 276 277 279 278 278 278 277 274 274 276 277 276 276 277 276 276 275 275 275 275 274 273 273 273 273 272 271 270
294 293 294 295 291 290 286 284 282 282 281 279 281 280 278 281 279 279 278 280 276 275 272 274 274 276 278 279 280 280 278 280 278 278 276 274 277 277 276 276 277 276 276 275 273 273 273 272 272 272 272 270 270 269
293 292 294 293 287 286 285 287 283 284 282 280 280 281 279 278 277 277 279 275 273 275 276 275 275 276 275 275 276 277 277 278 277 277 276 277 275 275 274 275 275 274 273 273 273 272 271 271 272 271 271 270 270 268
291 295 292 289 284 282 280 288 282 283 278 278 280 277 278 277 278 281 274 273 274 277 277 277 276 276 275 276 276 277 277 277 276 275 275 275 275 275 274 274 275 273 272 272 272 271 269 267 268 270 270 270 269 268
291 286 284 283 282 278 283 280 283 280 280 279 276 275 276 277 279 276 272 273 275 276 275 275 276 275 276 276 275 274 275 276 275 275 275 274 273 272 273 272 272 272 272 272 272 271 270 269 266 269 269 269 268 268
283 277 282 278 283 279 278 278 278 278 275 276 275 274 275 279 275 274 272 272 274 275 276 277 278 278 276 275 274 273 275 276 274 272 273 274 273 273 272 271 271 271 272 272 270 270 269 269 269 269 268 268 267 266
275 276 279 279 280 279 279 276 276 277 277 275 274 276 278 277 273 272 274 275 275 276 276 277 277 276 276 276 274 273 273 275 275 272 272 273 272 272 271 270 270 269 271 271 270 269 268 268 268 266 266 264 259 263
275 275 277 280 281 281 279 281 281 278 275 273 275 275 276 271 270 272 277 278 277 278 279 279 279 277 275 273 273 273 273 272 272 271 272 271 271 271 270 268 268 268 270 270 269 269 269 267 267 266 267 267 267 266
275 276 272 275 276 278 276 276 275 274 275 278 277 272 272 271 270 275 276 278 278 278 277 277 277 276 275 273 273 272 271 271 271 271 271 271 271 270 269 267 266 266 267 265 267 268 268 268 267 267 266 266 266 267
274 275 272 267 271 271 271 272 272 272 274 277 273 270 269 272 275 275 276 277 278 276 273 272 272 274 273 273 274 274 274 273 271 266 267 268 269 267 269 269 269 269 269 268 264 266 266 266 266 264 265 266 266 266
272 276 270 269 267 267 269 273 271 273 274 273 272 271 271 272 275 277 276 276 275 274 274 274 273 273 271 271 270 270 271 271 269 269 268 267 267 268 268 268 268 268 268 268 268 267 265 265 267 265 263 265 266 266
276 275 271 270 268 269 271 275 276 276 275 273 274 270 269 270 272 274 275 276 275 274 273 273 272 272 271 271 271 269 268 267 266 266 268 269 268 268 267 267 267 268 268 267 266 266 265 264 265 265 265 264 264 263
275 272 269 266 267 272 274 275 273 272 272 272 271 272 272 272 269 270 273 275 274 273 272 273 271 270 271 270 269 268 266 267 266 267 267 268 267 266 267 267 266 266 265 265 265 264 264 263 263 263 263 263 263 262
274 273 272 270 268 270 272 274 273 272 273 272 272 273 272 272 268 269 272 273 275 274 273 271 271 270 269 269 268 268 267 264 262 264 262 261 260 262 264 266 266 265 264 264 264 264 263 263 262 262 261 261 261 261
Wind_Speed
25 27 25 26 26 25 23 21 20 20 21 21 22 23 24 27 31 20 12 11 13 6 12 16 18 14 11 6 6 4 2 4 3 3 4 7 5 5 10 6 12 11 9 7 8 6 12 3 5 6 8 9 6 10
27 26 27 26 24 22 20 19 18 17 18 21 21 22 23 26 31 30 6 12 10 9 6 12 21 19 13 8 1 1 4 2 5 6 6 3 5 2 9 3 13 7 7 6 8 7 5 9 14 10 8 10 11 11
26 27 27 25 22 19 18 18 19 19 18 18 19 20 21 23 27 27 8 12 7 7 9 13 16 16 12 16 8 3 2 4 4 6 4 3 6 5 3 5 2 4 8 3 5 4 12 8 13 11 13 13 14 12
26 27 23 18 18 20 21 22 21 21 20 20 19 18 20 24 27 28 8 10 9 4 6 10 15 24 21 8 14 9 8 5 5 4 2 4 4 5 5 7 4 0 0 13 9 10 12 13 7 7 14 13 12 11
26 22 18 18 20 22 24 24 25 23 22 21 21 20 19 22 27 17 9 11 13 8 6 10 13 13 16 17 10 9 7 6 2 2 3 5 4 5 6 4 5 5 8 5 5 8 8 7 12 13 13 11 11 12
22 17 18 19 22 23 24 25 27 26 22 21 21 20 19 20 22 8 3 7 14 11 3 3 6 14 10 11 13 10 8 5 3 2 3 5 8 2 3 1 5 10 11 14 5 10 8 10 14 12 10 10 10 11
18 19 19 20 21 21 18 14 5 11 19 18 20 21 19 26 14 6 4 7 20 9 2 2 4 6 10 10 4 5 5 2 3 1 4 4 3 6 2 1 5 11 9 11 11 12 9 13 6 10 11 12 9 11
18 18 18 18 17 17 10 4 6 10 13 16 19 19 25 25 10 1 2 19 18 4 3 3 3 3 8 4 4 4 3 3 4 2 3 5 2 4 4 7 8 11 9 14 13 11 9 9 10 11 12 12 10 10
13 16 15 16 12 5 2 10 18 24 24 25 27 29 11 4 3 4 15 23 5 2 4 4 3 3 7 3 3 2 2 2 1 3 3 3 4 6 6 8 10 10 10 11 11 9 12 11 12 11 10 11 9 9
12 12 16 7 9 11 19 27 27 28 28 26 7 4 4 4 28 14 5 3 2 2 3 3 2 2 2 3 3 4 2 2 3 4 1 3 4 7 7 8 9 10 11 12 10 12 11 11 11 11 9 10 9 8
9 10 14 17 19 23 27 29 27 20 6 2 2 4 13 13 3 3 4 4 5 5 5 2 4 4 1 3 3 2 3 3 3 4 4 4 4 5 6 8 10 11 11 11 10 10 10 9 9 8 9 11 9 10
3 9 14 16 16 22 26 22 15 2 2 8 8 5 2 2 3 4 4 3 5 4 3 2 3 3 3 3 0 2 3 1 1 4 3 5 4 8 10 10 11 11 11 11 12 11 11 12 9 10 9 9 10 11
8 13 10 11 10 10 6 6 7 13 7 3 6 5 1 2 2 4 6 4 4 2 2 2 3 2 2 2 1 3 4 1 2 2 4 5 7 8 8 9 10 11 11 11 12 13 12 12 13 12 12 12 12 12
13 15 14 11 12 6 9 8 6 3 5 4 2 5 5 4 5 5 5 5 3 2 3 1 4 2 1 2 2 2 3 2 1 4 5 6 7 8 8 8 8 9 9 9 11 11 12 12 11 11 10 9 9 11
14 14 14 11 12 9 9 10 15 7 5 5 5 5 5 3 4 2 2 4 3 2 2 3 4 2 3 2 2 3 3 4 6 5 5 6 8 7 7 7 7 7 6 8 9 9 9 9 10 11 10 10 11 11
9 8 5 7 8 6 2 4 5 4 4 4 7 3 2 7 7 7 6 6 4 3 3 1 3 3 3 2 3 6 4 6 5 5 6 6 6 6 7 7 7 8 8 8 8 9 9 9 10 11 10 10 10 10
6 3 11 10 11 11 6 3 4 6 5 5 4 6 5 6 7 5 5 4 5 3 3 2 4 4 1 4 4 6 5 6 6 6 6 8 7 6 6 6 5 6 7 8 8 8 9 8 8 9 11 9 9 10
2 9 12 7 3 5 3 4 4 5 7 6 5 5 6 5 5 5 4 6 4 3 4 4 3 6 5 4 4 4 4 6 7 6 6 6 7 7 6 7 6 7 7 7 7 7 7 7 8 6 8 7 7 7
4 9 9 3 5 4 4 4 4 6 5 3 4 4 5 6 7 6 5 5 7 6 3 4 6 4 4 4 8 7 6 6 6 6 6 6 6 5 5 5 6 7 6 6 6 5 6 7 5 4 4 4 5 5
14 11 8 4 4 4 5 4 3 6 3 3 3 6 5 5 4 5 6 6 7 5 6 5 4 6 7 7 7 7 6 6 7 6 6 5 4 4 7 5 4 5 5 6 5 4 5 5 5 6 6 6 5 5
9 3 1 1 4 6 4 3 5 5 5 4 6 5 4 5 6 6 6 5 6 5 5 5 7 7 9 7 5 5 7 5 7 5 6 5 4 4 4 3 4 4 4 3 4 4 5 4 4 5 5 5 5 5
4 1 3 5 4 4 4 5 5 5 4 5 3 3 3 3 3 4 5 6 5 5 4 6 6 6 7 8 7 7 6 7 7 6 6 4 3 4 4 3 3 3 3 3 4 4 4 4 3 4 4 4 5 5
2 1 3 3 5 5 2 2 3 3 4 5 4 3 3 3 2 3 5 4 4 4 6 7 8 10 8 7 7 6 5 6 5 4 4 4 4 3 4 4 4 2 3 4 4 5 4 1 3 3 3 3 5 4
6 5 4 3 4 5 2 2 3 4 4 2 3 4 3 3 2 4 5 4 5 6 6 8 7 7 6 7 6 5 5 5 5 5 3 2 4 4 4 4 4 5 5 3 3 4 4 3 2 3 2 3 4 2
2 5 3 5 3 4 4 5 3 3 4 4 4 4 3 3 3 3 4 5 6 6 6 5 5 4 6 6 5 5 3 4 4 5 4 3 3 3 4 4 4 4 3 1 3 3 3 2 1 1 1 3 4 3
6 5 4 3 3 3 4 4 4 5 4 3 3 4 3 3 4 5 4 7 7 7 5 4 4 5 5 5 5 5 5 3 2 6 5 5 5 5 4 2 1 5 4 4 2 2 3 1 3 1 1 3 2 4
4 4 3 3 1 4 4 4 5 4 4 4 5 4 4 4 4 3 5 7 7 6 5 3 2 5 7 7 6 6 5 6 7 6 5 5 5 6 6 7 6 5 4 4 3 5 2 2 1 2 2 2 1 1
4 4 4 3 5 6 4 4 3 3 3 1 4 3 3 4 4 4 4 7 7 7 7 6 7 7 7 7 6 6 5 5 5 5 5 5 5 5 5 5 4 5 5 5 6 4 5 3 3 1 2 3 3 2
4 4 5 6 5 6 7 5 3 4 5 1 4 4 4 3 5 8 8 7 6 7 7 7 6 6 6 6 5 5 3 3 2 3 2 2 4 5 4 3 3 3 2 3 2 1 4 4 5 5 7 5 5 5
3 2 5 6 5 5 4 5 4 2 5 7 6 10 10 10 8 6 6 6 6 6 6 6 6 6 5 5 5 5 5 5 5 4 4 5 5 4 2 2 2 3 3 4 3 1 2 2 4 4 5 4 4 4
4 3 5 5 5 5 5 6 9 10 9 11 8 10 9 5 5 7 6 7 7 6 6 6 6 5 4 4 4 4 5 5 4 5 4 3 3 4 5 4 4 4 3 3 4 4 5 5 5 5 4 4 5 4
2 4 5 6 5 5 3 4 6 9 7 7 7 8 7 6 5 3 1 2 5 5 6 6 6 6 7 6 6 7 8 6 5 3 3 3 5 4 3 3 1 3 4 4 4 3 4 4 5 5 5 6 6 6
9 9 10 9 6 7 4 4 4 5 5 4 3 3 5 4 4 4 2 3 3 6 6 8 8 7 6 6 7 6 7 7 8 7 7 8 7 6 4 3 3 3 3 4 4 4 4 5 5 7 7 6 7 7
Wind_Direction
295 294 292 291 289 284 281 275 266 258 248 241 236 228 218 205 201 198 208 205 199 230 253 263 263 270 280 280 285 72 309 122 118 197 238 238 259 256 262 178 186 177 186 194 226 244 240 222 307 312 77 80 43 50
294 293 292 289 285 283 276 273 267 264 249 235 233 225 217 216 195 191 198 201 199 221 253 248 264 279 303 321 130 238 285 132 175 224 236 273 259 286 272 273 171 192 203 193 189 214 267 50 88 84 68 68 43 38
296 295 292 287 282 277 273 273 269 264 251 241 231 218 210 200 197 188 187 177 177 215 260 262 252 260 256 258 188 208 217 215 264 19 320 284 264 280 274 261 224 335 252 74 288 35 48 31 51 60 53 50 44 28
297 297 290 285 282 277 275 267 263 260 251 237 224 212 202 193 191 189 174 171 163 151 232 259 222 234 255 261 246 220 253 247 323 352 282 261 261 278 268 266 250 43 229 215 204 67 92 57 69 24 63 49 40 25
299 296 293 292 288 288 280 271 263 251 240 230 215 203 198 196 189 184 161 174 179 200 199 238 255 224 211 219 251 239 213 243 305 289 209 254 256 281 298 309 37 26 359 5 71 38 77 97 60 27 41 27 28 15
304 298 297 294 296 293 292 284 269 242 221 212 205 192 186 182 170 115 113 185 189 222 310 279 305 217 198 188 208 230 206 219 192 229 275 282 278 14 331 11 35 46 58 37 41 349 57 74 51 36 31 24 23 38
296 300 304 301 300 301 300 309 323 170 186 190 182 171 170 142 141 152 154 158 180 184 241 282 268 204 178 179 181 209 194 176 184 159 258 262 356 339 218 48 32 14 41 42 26 1 33 37 24 11 15 22 29 39
303 309 307 304 305 307 305 318 115 141 148 153 160 159 147 133 128 204 346 149 147 130 169 237 263 137 153 145 174 168 169 149 190 226 262 251 194 187 65 63 43 21 354 36 8 9 43 17 21 21 15 16 14 37
317 314 315 316 307 297 82 111 108 108 105 104 115 107 98 76 104 78 119 133 121 168 190 213 213 185 155 150 104 97 117 167 153 225 230 276 22 55 40 23 29 17 12 358 348 10 16 12 12 12 20 23 21 26
317 331 326 334 95 103 108 108 106 107 108 111 95 71 95 106 112 108 49 84 145 269 243 231 132 122 202 150 134 133 168 178 211 202 207 77 77 73 34 28 24 15 7 7 5 6 4 3 2 8 43 46 40 41
358 358 81 85 90 96 103 107 113 119 112 93 84 63 101 127 80 97 136 171 164 197 206 221 156 141 174 184 141 200 174 188 225 148 204 136 91 65 49 40 30 24 12 25 16 27 21 14 5 25 47 47 52 56
44 56 80 89 103 118 134 138 143 210 52 88 101 100 98 131 174 159 156 151 199 141 104 151 69 60 85 37 321 177 177 202 241 138 217 86 78 51 39 38 36 28 21 36 34 34 36 29 32 52 57 62 65 72
101 91 82 82 107 128 103 334 22 101 119 108 48 40 282 23 151 175 155 155 117 43 122 160 108 75 120 127 188 179 209 94 262 99 65 59 70 49 39 29 44 38 35 43 44 46 50 49 42 53 59 58 65 63
101 100 95 79 83 99 72 12 354 17 58 60 47 63 6 71 52 27 25 62 72 16 60 57 101 71 10 80 329 84 29 288 212 142 71 85 65 59 57 55 54 49 54 60 61 64 63 59 61 59 62 70 76 74
102 103 97 85 95 77 57 33 27 41 49 51 13 56 65 92 65 51 47 79 32 334 332 110 89 68 49 100 35 131 157 85 26 57 80 76 68 63 57 62 76 77 72 69 72 73 74 72 70 68 62 65 64 66
148 137 84 88 98 124 107 78 44 64 67 62 33 94 11 106 70 43 45 65 10 342 305 241 115 97 54 54 65 19 337 48 59 70 90 92 80 73 71 63 63 68 77 86 89 90 87 83 85 84 79 71 67 63
242 103 151 137 106 76 44 79 53 53 61 53 53 8 51 62 57 45 17 7 320 310 41 351 57 55 155 72 70 11 33 90 97 85 73 66 79 87 85 82 78 92 94 92 91 91 92 97 100 93 86 83 83 81
96 137 163 174 236 112 57 48 74 73 62 46 74 69 50 34 70 57 29 357 9 49 31 57 28 43 25 45 83 102 89 79 75 86 87 82 66 59 72 80 85 88 85 85 96 109 122 123 106 102 113 122 113 98
112 139 173 238 348 79 75 48 59 84 72 95 98 87 79 67 52 41 36 48 46 41 83 63 57 51 69 79 108 117 129 126 117 105 90 76 88 99 101 100 86 74 68 76 81 80 71 56 63 79 99 108 91 80
86 104 140 192 258 90 83 69 80 90 91 102 95 72 73 68 53 52 41 39 53 55 53 45 57 69 73 75 84 93 105 133 141 134 124 123 116 74 47 68 94 121 115 115 107 122 118 90 65 48 39 37 72 76
113 124 207 269 59 52 84 87 69 104 126 93 133 88 80 78 55 53 51 39 49 34 75 78 84 65 50 60 76 79 45 60 48 84 117 110 84 91 91 77 58 53 73 89 101 76 47 58 58 63 69 68 65 59
109 222 80 43 75 66 65 33 98 101 83 113 117 93 112 90 80 44 70 55 59 35 80 114 119 117 89 65 65 71 82 85 85 86 83 100 96 80 62 49 74 75 68 55 62 67 61 52 43 96 103 91 62 49
168 78 65 86 85 66 96 302 93 128 110 130 142 104 99 83 75 140 84 69 72 69 84 84 83 92 110 119 105 91 93 96 94 97 95 88 89 75 61 40 36 49 93 64 54 70 68 10 55 80 129 143 134 139
35 52 48 69 73 98 148 93 105 101 116 122 104 101 87 106 148 74 77 75 110 126 122 136 140 133 134 127 97 85 74 91 98 80 52 96 98 69 60 66 57 36 25 58 69 79 76 77 269 73 37 52 32 46
95 20 8 83 127 132 122 127 124 113 116 128 121 125 127 189 96 90 101 130 153 146 149 161 169 137 113 103 110 100 32 35 83 94 56 51 104 138 118 97 77 43 348 234 138 120 68 29 50 52 21 38 47 8
80 19 16 84 139 124 142 132 152 141 114 104 92 113 185 131 89 90 98 146 146 141 153 157 136 126 108 102 122 103 72 27 62 95 63 32 21 2 22 354 91 107 41 4 358 133 132 333 76 357 147 155 110 324
95 82 65 338 61 96 96 75 89 101 108 118 142 150 153 104 98 83 104 118 129 130 128 102 114 113 110 98 91 81 69 52 46 73 75 63 49 31 28 26 42 43 48 19 351 346 38 153 175 261 297 315 191 210
66 19 105 63 65 18 58 62 76 80 82 70 105 63 66 75 102 118 93 109 105 105 94 73 67 81 94 100 106 106 99 105 112 122 122 106 91 90 81 64 46 34 51 25 9 5 352 353 337 281 283 323 351 349
79 97 83 43 60 54 28 21 63 46 337 329 109 92 91 57 100 109 109 109 112 118 118 113 102 103 103 101 96 95 69 33 34 73 2 36 129 92 52 41 70 22 5 120 131 53 43 351 14 2 349 339 343 345
103 86 94 63 56 61 34 17 89 85 41 68 89 107 92 82 83 99 117 135 133 122 119 124 133 126 125 124 110 100 68 48 26 2 4 46 67 70 73 63 33 68 325 336 352 105 218 265 228 222 231 248 276 314
113 104 85 70 75 98 113 86 67 78 85 102 113 105 115 111 66 33 54 84 95 113 127 121 98 100 109 134 128 151 131 88 65 42 30 73 79 65 52 30 15 355 354 352 351 327 4 338 307 305 310 324 334 310
74 92 119 109 131 159 227 100 91 113 118 108 106 128 150 128 104 111 48 139 153 134 119 130 129 94 75 78 80 73 77 111 119 97 49 45 69 51 52 27 13 343 6 341 319 328 328 332 323 326 322 322 341 343
90 92 107 108 131 171 198 168 116 117 114 104 60 42 37 51 97 102 114 7 349 130 102 87 86 87 92 89 99 97 79 74 71 72 68 60 48 23 332 34 11 17 340 334 333 334 324 328 331 339 332 319 317 332